SQ7FJB-10 Weather Reports


time (UTC)temp
C
wind
direction
speed
KPH
gust
KPH
rain 1hr
cm
rain 24hr
cm
rain mn
cm
humidity
%
barometer
mb
20260506221015 17 205 0.0 0.0 0.00 0.00 0.00 64 1314.1
20260506214015 16 195 1.6 1.6 0.00 0.00 0.00 66 1313.7
20260506211003 16 153 0.0 0.0 0.00 0.00 0.00 66 1313.7
20260506203951 16 110 0.0 0.0 0.00 0.00 0.00 68 1313.6
20260506200950 16 149 0.0 0.0 0.00 0.00 0.00 68 1313.6
20260506193937 16 216 0.0 0.0 0.00 0.00 0.00 67 1313.7
20260506190937 18 198 0.0 0.0 0.00 0.00 0.00 58 1313.5
20260506183925 18 300 0.0 0.0 0.00 0.00 0.00 55 1313.3
20260506180913 20 177 0.0 0.0 0.00 0.00 0.00 55 1313.1
20260506173900 20 167 0.0 0.0 0.00 0.00 0.00 54 1313.0
20260506170900 21 174 0.0 0.0 0.00 0.00 0.00 51 1313.0
20260506163847 22 150 1.6 1.6 0.00 0.00 0.00 47 1313.1
20260506160847 22 161 6.4 6.4 0.00 0.00 0.00 44 1313.1
20260506153835 23 222 3.2 3.2 0.00 0.00 0.00 42 1313.2
20260506150834 23 173 9.7 12.9 0.00 0.00 0.00 40 1313.2
20260506143822 23 127 4.8 4.8 0.00 0.00 0.00 40 1313.3
20260506140758 23 159 9.7 12.9 0.00 0.00 0.00 40 1313.4
20260506133745 23 150 6.4 8.0 0.00 0.00 0.00 42 1313.4
20260506130745 24 165 9.7 9.7 0.00 0.00 0.00 39 1313.3
20260506123732 23 150 11.3 12.9 0.00 0.00 0.00 41 1313.5
20260506120733 23 156 16.1 16.1 0.00 0.00 0.00 41 1313.6
20260506113720 23 191 14.5 17.7 0.00 0.00 0.00 42 1313.6
20260506110708 23 169 16.1 17.7 0.00 0.00 0.00 44 1313.8
20260506103655 21 144 9.7 9.7 0.00 0.00 0.00 48 1313.7
20260506100654 22 220 4.8 4.8 0.00 0.00 0.00 47 1313.6
20260506093642 21 184 9.7 12.9 0.00 0.00 0.00 47 1313.6
20260506090630 21 90 3.2 3.2 0.00 0.00 0.00 48 1313.6
20260506083630 20 184 8.0 8.0 0.00 0.00 0.00 50 1313.4
20260506080617 20 170 9.7 11.3 0.00 0.00 0.00 52 1313.4
20260506070605 18 186 9.7 14.5 0.00 0.00 0.00 56 1313.1
20260506060540 16 192 8.0 8.0 0.00 0.00 0.00 63 1313.0
20260506050527 13 168 1.6 1.6 0.00 0.00 0.00 61 1313.2
20260506043515 11 186 0.0 0.0 0.00 0.00 0.00 68 1313.2
20260506040502 8 154 0.0 0.0 0.00 0.00 0.00 73 1313.1
20260506033450 8 138 0.0 0.0 0.00 0.00 0.00 73 1313.1
20260506030450 9 154 0.0 0.0 0.00 0.00 0.00 70 1313.3
20260506023437 9 138 0.0 0.0 0.00 0.00 0.00 73 1313.4
20260506020437 10 186 0.0 0.0 0.00 0.00 0.00 70 1313.4
20260506013425 11 168 0.0 0.0 0.00 0.00 0.00 69 1313.5
20260506010425 10 115 0.0 0.0 0.00 0.00 0.00 65 1313.5
20260506003412 10 150 0.0 0.0 0.00 0.00 0.00 68 1313.6
20260506000412 11 150 0.0 0.0 0.00 0.00 0.00 65 1313.6
20260505233400 11 186 0.0 0.0 0.00 0.00 0.00 60 1313.8
20260505230359 13 192 0.0 0.0 0.00 0.00 0.00 53 1313.8